TimeAKDT,TemperatureF,Dew PointF,Humidity,Sea Level PressureIn,VisibilityMPH,Wind Direction,Wind SpeedMPH,Gust SpeedMPH,PrecipitationIn,Events,Conditions,WindDirDegrees,DateUTC
12:16 AM,19.4,10.4,68,29.21,10.0,NE,6.9,-,N/A,,Overcast,40,2013-09-22 08:16:00
12:36 AM,19.4,10.4,68,29.21,10.0,NE,5.8,-,N/A,,Overcast,50,2013-09-22 08:36:00
12:56 AM,19.4,10.4,68,29.22,10.0,NE,6.9,-,N/A,,Overcast,40,2013-09-22 08:56:00
1:16 AM,19.4,10.4,68,29.22,10.0,North,3.5,-,N/A,,Overcast,10,2013-09-22 09:16:00
1:36 AM,19.4,10.4,68,29.23,10.0,NE,5.8,-,N/A,,Overcast,40,2013-09-22 09:36:00
1:56 AM,19.4,10.4,68,29.23,10.0,NNW,4.6,-,N/A,,Overcast,340,2013-09-22 09:56:00
2:16 AM,19.4,10.4,68,29.23,10.0,NNW,4.6,-,N/A,,Overcast,330,2013-09-22 10:16:00
2:36 AM,19.4,10.4,68,29.23,10.0,North,4.6,-,N/A,,Overcast,360,2013-09-22 10:36:00
2:56 AM,19.4,10.4,68,29.24,10.0,North,5.8,-,N/A,,Overcast,360,2013-09-22 10:56:00
3:16 AM,19.4,12.2,74,29.24,10.0,North,5.8,-,N/A,,Overcast,360,2013-09-22 11:16:00
3:36 AM,19.4,12.2,74,29.24,10.0,NNE,5.8,-,N/A,,Overcast,20,2013-09-22 11:36:00
3:56 AM,19.4,12.2,74,29.25,10.0,North,4.6,-,N/A,,Overcast,350,2013-09-22 11:56:00
4:16 AM,19.4,12.2,74,29.25,5.0,North,5.8,-,N/A,,Overcast,10,2013-09-22 12:16:00
4:36 AM,21.2,12.2,68,29.25,3.0,NE,5.8,-,N/A,,Mostly Cloudy,40,2013-09-22 12:36:00
4:56 AM,21.2,12.2,68,29.25,4.0,NNE,5.8,-,N/A,,Overcast,20,2013-09-22 12:56:00
5:16 AM,19.4,12.2,74,29.26,5.0,North,4.6,-,N/A,,Overcast,10,2013-09-22 13:16:00
5:36 AM,21.2,12.2,68,29.26,2.5,North,4.6,-,N/A,,Overcast,10,2013-09-22 13:36:00
5:56 AM,21.2,14.0,74,29.26,2.0,NNE,5.8,-,N/A,,Overcast,30,2013-09-22 13:56:00
6:16 AM,21.2,14.0,74,29.26,2.5,NE,8.1,-,N/A,,Overcast,50,2013-09-22 14:16:00
6:36 AM,21.2,14.0,74,29.26,8.0,NNE,5.8,-,N/A,,Overcast,20,2013-09-22 14:36:00
6:56 AM,19.4,12.2,74,29.26,5.0,North,5.8,-,N/A,,Overcast,360,2013-09-22 14:56:00
7:16 AM,21.2,14.0,74,29.27,7.0,NE,6.9,-,N/A,,Overcast,50,2013-09-22 15:16:00
7:36 AM,21.2,14.0,74,29.27,5.0,NE,8.1,-,N/A,,Overcast,40,2013-09-22 15:36:00
7:56 AM,21.2,14.0,74,29.27,9.0,NE,9.2,-,N/A,,Overcast,40,2013-09-22 15:56:00
8:16 AM,21.2,14.0,74,29.27,6.0,NE,9.2,-,N/A,,Overcast,50,2013-09-22 16:16:00
8:36 AM,21.2,14.0,74,29.28,9.0,NE,11.5,-,N/A,,Overcast,50,2013-09-22 16:36:00
8:56 AM,21.2,14.0,74,29.28,9.0,NE,11.5,-,N/A,,Overcast,50,2013-09-22 16:56:00
9:16 AM,21.2,15.8,80,29.29,7.0,NE,13.8,-,N/A,,Overcast,40,2013-09-22 17:16:00
9:36 AM,21.2,15.8,80,29.29,3.0,NE,11.5,-,N/A,,Overcast,50,2013-09-22 17:36:00
9:56 AM,21.2,15.8,80,29.29,8.0,ENE,12.7,17.3,N/A,,Overcast,60,2013-09-22 17:56:00
10:16 AM,21.2,15.8,80,29.29,10.0,NE,12.7,-,N/A,,Overcast,50,2013-09-22 18:16:00
10:36 AM,21.2,15.8,80,29.29,8.0,ENE,15.0,-,N/A,,Overcast,60,2013-09-22 18:36:00
10:56 AM,21.2,15.8,80,29.29,10.0,NE,15.0,-,N/A,,Overcast,50,2013-09-22 18:56:00
11:16 AM,21.2,15.8,80,29.30,10.0,NE,13.8,-,N/A,,Overcast,50,2013-09-22 19:16:00
11:36 AM,23.0,15.8,74,29.30,10.0,NE,12.7,-,N/A,,Overcast,50,2013-09-22 19:36:00
11:56 AM,23.0,15.8,74,29.30,10.0,ENE,12.7,-,N/A,,Overcast,60,2013-09-22 19:56:00
12:16 PM,23.0,14.0,68,29.30,9.0,NE,11.5,-,N/A,,Overcast,50,2013-09-22 20:16:00
12:36 PM,23.0,15.8,74,29.31,10.0,NE,13.8,-,N/A,,Overcast,50,2013-09-22 20:36:00
12:56 PM,23.0,15.8,74,29.31,7.0,NE,12.7,-,N/A,,Overcast,50,2013-09-22 20:56:00
1:16 PM,23.0,14.0,68,29.31,10.0,NE,11.5,18.4,N/A,,Mostly Cloudy,50,2013-09-22 21:16:00
1:36 PM,23.0,14.0,68,29.31,10.0,NE,12.7,-,N/A,,Overcast,50,2013-09-22 21:36:00
1:56 PM,23.0,15.8,74,29.31,10.0,NE,12.7,-,N/A,,Overcast,50,2013-09-22 21:56:00
2:16 PM,23.0,15.8,74,29.32,10.0,NE,11.5,-,N/A,,Overcast,50,2013-09-22 22:16:00
2:36 PM,23.0,14.0,68,29.32,10.0,NE,10.4,-,N/A,,Overcast,50,2013-09-22 22:36:00
2:56 PM,23.0,15.8,74,29.32,10.0,ENE,11.5,17.3,N/A,,Overcast,60,2013-09-22 22:56:00
3:16 PM,23.0,15.8,74,29.32,10.0,NE,12.7,-,N/A,,Overcast,50,2013-09-22 23:16:00
3:36 PM,23.0,14.0,68,29.33,10.0,NE,10.4,-,N/A,,Overcast,50,2013-09-22 23:36:00
3:56 PM,23.0,14.0,68,29.33,10.0,ENE,11.5,-,N/A,,Overcast,60,2013-09-22 23:56:00
4:16 PM,23.0,14.0,68,29.34,10.0,ENE,10.4,-,N/A,,Overcast,70,2013-09-23 00:16:00
4:36 PM,23.0,15.8,74,29.34,10.0,NE,11.5,-,N/A,,Overcast,50,2013-09-23 00:36:00
4:56 PM,23.0,15.8,74,29.34,10.0,ENE,11.5,-,N/A,,Overcast,60,2013-09-23 00:56:00
5:16 PM,23.0,15.8,74,29.34,10.0,ENE,10.4,-,N/A,,Overcast,60,2013-09-23 01:16:00
5:36 PM,23.0,15.8,74,29.35,10.0,NE,11.5,-,N/A,,Overcast,50,2013-09-23 01:36:00
5:56 PM,21.2,14.0,74,29.35,10.0,NE,10.4,-,N/A,,Overcast,50,2013-09-23 01:56:00
6:16 PM,21.2,14.0,74,29.35,8.0,NE,9.2,-,N/A,,Overcast,50,2013-09-23 02:16:00
6:36 PM,21.2,15.8,80,29.35,2.0,NE,10.4,-,N/A,,Overcast,50,2013-09-23 02:36:00
6:56 PM,21.2,14.0,74,29.36,1.8,NE,9.2,-,N/A,,Overcast,50,2013-09-23 02:56:00
7:16 PM,21.2,14.0,74,29.36,2.5,NE,10.4,-,N/A,,Overcast,50,2013-09-23 03:16:00
7:36 PM,21.2,14.0,74,29.36,1.8,NE,8.1,-,N/A,,Overcast,40,2013-09-23 03:36:00
7:56 PM,21.2,14.0,74,29.36,1.8,NE,6.9,-,N/A,,Overcast,40,2013-09-23 03:56:00
8:16 PM,21.2,14.0,74,29.36,2.0,NE,6.9,-,N/A,,Overcast,50,2013-09-23 04:16:00
8:36 PM,21.2,14.0,74,29.36,4.0,NE,6.9,-,N/A,,Mostly Cloudy,50,2013-09-23 04:36:00
8:56 PM,21.2,14.0,74,29.36,3.0,NE,5.8,-,N/A,,Overcast,50,2013-09-23 04:56:00
9:16 PM,21.2,14.0,74,29.37,2.5,ENE,5.8,-,N/A,,Overcast,60,2013-09-23 05:16:00
9:36 PM,21.2,14.0,74,29.37,9.0,NE,5.8,-,N/A,,Overcast,50,2013-09-23 05:36:00
9:56 PM,21.2,14.0,74,29.38,5.0,NE,3.5,-,N/A,,Overcast,50,2013-09-23 05:56:00
10:16 PM,21.2,14.0,74,29.38,7.0,NE,4.6,-,N/A,,Overcast,50,2013-09-23 06:16:00
10:36 PM,21.2,14.0,74,29.38,4.0,Calm,Calm,-,N/A,,Overcast,0,2013-09-23 06:36:00
10:56 PM,21.2,14.0,74,29.38,3.0,Calm,Calm,-,N/A,,Overcast,0,2013-09-23 06:56:00
11:16 PM,19.4,14.0,80,29.39,3.0,Calm,Calm,-,N/A,,Overcast,0,2013-09-23 07:16:00
11:36 PM,19.4,14.0,80,29.39,5.0,Calm,Calm,-,N/A,,Overcast,0,2013-09-23 07:36:00
11:56 PM,21.2,14.0,74,29.39,4.0,Calm,Calm,-,N/A,,Overcast,0,2013-09-23 07:56:00